WetterOnline ( http://www.wetteronline.de )

Wetter aktuell Francorchamps

Aktuelles Wetter: Aachen-Orsbach (231m)

6-stündlich | Neueste Meldungen
Ortszeit Temperatur Wetter
Fr, 20.04. 2:00 18.0° C bedeckt
Do, 19.04. 20:00 21.7° C fast wolkenlos
Do, 19.04. 14:00 25.6° C leicht bewölkt
Do, 19.04. 8:00 16.5° C leicht bewölkt
Do, 19.04. 2:00 15.2° C leicht bewölkt
Mi, 18.04. 20:00 20.3° C wolkenlos
Mi, 18.04. 14:00 21.8° C fast wolkenlos
Mi, 18.04. 8:00 12.3° C leicht bewölkt
Ortszeit Temperatur Wetter
Fr, 20.04. 6:10 16.6° C bedeckt
Fr, 20.04. 6:00 15.9° C bedeckt
Fr, 20.04. 5:50 15.9° C bedeckt
Fr, 20.04. 5:40 16.2° C bedeckt
Fr, 20.04. 5:30 15.6° C bedeckt
Fr, 20.04. 5:20 15.6° C bedeckt
Fr, 20.04. 5:00 16.3° C bedeckt
Fr, 20.04. 4:30 16.5° C bedeckt
Fr, 20.04. 4:00 16.5° C bedeckt
Fr, 20.04. 3:30 15.5° C bedeckt
Fr, 20.04. 3:00 16.3° C bedeckt
Ortszeit Relative Feuchte Sichtweite
Fr, 20.04. 2:00 55% 35 km
Do, 19.04. 20:00 48% 60 km
Do, 19.04. 14:00 34% 19 km
Do, 19.04. 8:00 56% 35 km
Do, 19.04. 2:00 61% 45 km
Mi, 18.04. 20:00 49% 60 km
Mi, 18.04. 14:00 49% 26 km
Mi, 18.04. 8:00 75% 45 km
Ortszeit Relative Feuchte Sichtweite
Fr, 20.04. 6:10 58% -
Fr, 20.04. 6:00 61% 35 km
Fr, 20.04. 5:50 61% -
Fr, 20.04. 5:40 61% -
Fr, 20.04. 5:30 63% 35 km
Fr, 20.04. 5:20 63% -
Fr, 20.04. 5:00 60% 35 km
Fr, 20.04. 4:30 60% 35 km
Fr, 20.04. 4:00 60% 35 km
Fr, 20.04. 3:30 63% 35 km
Fr, 20.04. 3:00 61% 35 km
Ortszeit Niederschlagsmenge Niederschlagsart
Fr, 20.04. 2:00 0.0 l/m2 in 6 Std. -
Do, 19.04. 20:00 0.0 l/m2 in 12 Std. -
Do, 19.04. 14:00 0.0 l/m2 in 6 Std. -
Do, 19.04. 8:00 0.0 l/m2 in 12 Std. -
Do, 19.04. 2:00 0.0 l/m2 in 6 Std. -
Mi, 18.04. 20:00 0.0 l/m2 in 12 Std. -
Mi, 18.04. 14:00 0.0 l/m2 in 6 Std. -
Mi, 18.04. 8:00 0.0 l/m2 in 12 Std. -
Ortszeit Niederschlagsmenge Niederschlagsart
Fr, 20.04. 6:10 keine Meldung -
Fr, 20.04. 6:00 0.0 l/m2 in 1 Std. -
Fr, 20.04. 5:50 keine Meldung -
Fr, 20.04. 5:40 keine Meldung -
Fr, 20.04. 5:30 0.0 l/m2 in 1 Std. -
Fr, 20.04. 5:20 keine Meldung -
Fr, 20.04. 5:00 0.0 l/m2 in 1 Std. -
Fr, 20.04. 4:30 0.0 l/m2 in 1 Std. -
Fr, 20.04. 4:00 0.0 l/m2 in 1 Std. -
Fr, 20.04. 3:30 0.0 l/m2 in 1 Std. -
Fr, 20.04. 3:00 0.0 l/m2 in 1 Std. -
Ortszeit Stärke Spitze Richtung
km/h Bft. km/h Grad Sektor
Fr, 20.04. 2:00 17 3 28 190° S
Do, 19.04. 20:00 15 3 35 80° O
Do, 19.04. 14:00 22 4 43 110° O
Do, 19.04. 8:00 15 3 22 130° SO
Do, 19.04. 2:00 14 3 18 110° O
Mi, 18.04. 20:00 15 3 33 70° O
Mi, 18.04. 14:00 13 3 24 60° NO
Mi, 18.04. 8:00 7 2 11 130° SO
Ortszeit Stärke Spitze Richtung
km/h Bft. km/h Grad Sektor
Fr, 20.04. 6:10 7 2 - 180° S
Fr, 20.04. 6:00 7 2 19 190° S
Fr, 20.04. 5:50 7 2 - 190° S
Fr, 20.04. 5:40 9 2 - 200° S
Fr, 20.04. 5:30 14 3 18 210° SW
Fr, 20.04. 5:20 14 3 - 210° SW
Fr, 20.04. 5:00 14 3 22 220° SW
Fr, 20.04. 4:30 17 3 20 210° SW
Fr, 20.04. 4:00 18 3 22 210° SW
Fr, 20.04. 3:30 14 3 18 220° SW
Fr, 20.04. 3:00 14 3 22 210° SW
Ortszeit Untergrenze Bedeckung Gattung
total tief tief mittel hoch
Fr, 20.04. 2:00 - 8/8 - - - -
Do, 19.04. 20:00 3300 m 1/8 1/8 - - -
Do, 19.04. 14:00 10500 m 6/8 0/8 - - -
Do, 19.04. 8:00 10500 m 3/8 0/8 - - -
Do, 19.04. 2:00 10500 m 5/8 0/8 - - -
Mi, 18.04. 20:00 - 0/8 0/8 - - -
Mi, 18.04. 14:00 10500 m 2/8 0/8 - - -
Mi, 18.04. 8:00 3000 m 2/8 2/8 - - -
Ortszeit Bedeckungsgrad in Achtel und Wolkenuntergrenze
Fr, 20.04. 6:10 9 9 9
Fr, 20.04. 6:00 9 9 9
Fr, 20.04. 5:50 9 9 9
Fr, 20.04. 5:40 9 9 9
Fr, 20.04. 5:30 9 9 9
Fr, 20.04. 5:20 9 9 9
Fr, 20.04. 5:00 9 9 9
Fr, 20.04. 4:30 9 9 9
Fr, 20.04. 4:00 9 9 9
Fr, 20.04. 3:30 9 9 9
Fr, 20.04. 3:00 9 9 9
Ortszeit Luftdruck NN (hPa) Tendenz (hPa in 3 Std.)
Fr, 20.04. 2:00 1024 - 0,6
Do, 19.04. 20:00 1024 - 0,5
Do, 19.04. 14:00 1025 - 1,0
Do, 19.04. 8:00 1027 - 0,4
Do, 19.04. 2:00 1028 - 0,7
Mi, 18.04. 20:00 1028 - 0,8
Mi, 18.04. 14:00 1030 - 0,8
Mi, 18.04. 8:00 1031 + 1,3
Ortszeit Luftdruck NN (hPa) Tendenz (hPa in 3 Std.)
Fr, 20.04. 6:10 1024 keine Meldung
Fr, 20.04. 6:00 1024 - 0,7
Fr, 20.04. 5:50 1024 keine Meldung
Fr, 20.04. 5:40 1024 keine Meldung
Fr, 20.04. 5:30 1024 - 0,7
Fr, 20.04. 5:20 1024 keine Meldung
Fr, 20.04. 5:00 1024 - 0,6
Fr, 20.04. 4:30 1024 - 0,6
Fr, 20.04. 4:00 1024 - 0,3
Fr, 20.04. 3:30 1024 - 0,6
Fr, 20.04. 3:00 1024 - 0,5
Ortszeit Schneehöhe (cm)
Fr, 20.04. 2:00 0
Do, 19.04. 20:00 0
Do, 19.04. 14:00 0
Do, 19.04. 8:00 0
Do, 19.04. 2:00 0
Mi, 18.04. 20:00 0
Mi, 18.04. 14:00 0
Mi, 18.04. 8:00 0
Ortszeit Schneehöhe (cm)
Fr, 20.04. 6:10 0
Fr, 20.04. 6:00 0
Fr, 20.04. 5:50 0
Fr, 20.04. 5:40 0
Fr, 20.04. 5:30 0
Fr, 20.04. 5:20 0
Fr, 20.04. 5:00 0
Fr, 20.04. 4:30 0
Fr, 20.04. 4:00 0
Fr, 20.04. 3:30 0
Fr, 20.04. 3:00 0
Link zu dieser Seite / Seite empfehlen

Das Wetter in ...